Regional Weather Roundup
Issued by NWS

Home | Current Version | Previous Version | Graphics & Text | Print | Product List | Glossary On
Versions: 1 2 3 4 5 6 7 8 9 10 11 12 13 14 15 16 17 18 19 20 21 22 23 24 25 26 27 28 29 30 31 32 33 34 35 36 37 38 39 40 41 42 43 44 45 46 47 48 49 50
000
ASUS45 KBOI 010010
RWRID
WEATHER ROUNDUP FOR IDAHO
NATIONAL WEATHER SERVICE BOISE ID
600 PM MDT TUE SEP 30 2014

NOTE: "FAIR" INDICATES FEW OR NO CLOUDS BELOW 12000 FEET
WITH NO SIGNIFICANT WEATHER AND/OR OBSTRUCTIONS TO VISIBILITY

IDZ012-014-010100-
SOUTHWEST IDAHO


CITY           SKY/WX    TMP DP  RH WIND       PRES   REMARKS
BOISE          SUNNY     62  33  33 NW14G24   29.96F
CALDWELL       MOSUNNY   63  34  34 N14G20    29.99S
MOUNTAIN HOME  SUNNY     61  33  33 NW24G31   29.96R
$$

IDZ016-017-010100-
SOUTHCENTRAL IDAHO


CITY           SKY/WX    TMP DP  RH WIND       PRES   REMARKS
BURLEY         LGT RAIN  54  37  52 W25G40    29.90F
JEROME         SUNNY     55  33  43 SW23G30   29.95S
TWIN FALLS     SUNNY     56  36  47 W23G30    29.96R HAZE
$$

IDZ019>023-010100-
SOUTHEAST IDAHO


CITY           SKY/WX    TMP DP  RH WIND       PRES   REMARKS
IDAHO FALLS    PTSUNNY   57  38  48 SW22G30   29.86R
POCATELLO      MOSUNNY   56  38  50 SW16G30   29.91R
REXBURG        CLOUDY    50  43  77 SW6       29.85S
$$

IDZ006-010-011-018-031-032-010100-
CENTRAL IDAHO MOUNTAINS


CITY           SKY/WX    TMP DP  RH WIND       PRES   REMARKS
MCCALL         MOSUNNY   50  31  48 NW9       29.98R
HAILEY         MOSUNNY   57  34  41 W10       29.86S
STANLEY          N/A     38  35  89 W8G21     30.00R WCI  32
SALMON         MOSUNNY   54  34  47 NW6       29.91R
CHALLIS        PTSUNNY   50  33  52 NW21      29.92R
$$

IDZ002-004-006-007-026-010100-
NORTHERN IDAHO


CITY           SKY/WX    TMP DP  RH WIND       PRES   REMARKS
LEWISTON       CLOUDY    65  38  36 W14       29.95S
LOWELL           N/A     54  51  90 N3        29.99R
COEUR D`ALENE  PTSUNNY   57  43  58 SW13      29.91R
MULLAN PASS    CLOUDY    38  36  92 VRB3      29.96R
$$


USA.gov is the U.S. government's official web portal to all federal, state and local government web resources and services.